,,,PA_Meas_PMT16A,,PR_Meas_QMR101_102,,RH_Meas_QMH101,,SR_Meas_QMS101,,TA_Meas_QMH101,,GenWind,,GenWind,
date,time,status,PA,status,PR,status,RH,status,SR,status,TA,status,DirAvg,status,SpdAvg,
2009-06-29, 00:00:04,VALID,1009.45,VALID,0,VALID,86.9031,VALID,0.105969,VALID,23.7312,VALID,157,VALID,1.36797,
2009-06-29, 00:01:04,VALID,1009.43,VALID,0,VALID,86.8802,VALID,0,VALID,23.7312,VALID,178,VALID,1.16172,
2009-06-29, 00:02:04,VALID,1009.42,VALID,0,VALID,86.8192,VALID,0,VALID,23.7312,VALID,178,VALID,1.60938,
2009-06-29, 00:03:04,VALID,1009.43,VALID,0,VALID,86.7582,VALID,0.105969,VALID,23.7099,VALID,189,VALID,1.18477,
2009-06-29, 00:04:04,VALID,1009.47,VALID,0,VALID,86.9793,VALID,0,VALID,23.7507,VALID,211,VALID,1.19805,
2009-06-29, 00:05:04,VALID,1009.46,VALID,0,VALID,86.5828,VALID,0,VALID,23.7507,VALID,174,VALID,2.25195,
2009-06-29, 00:06:04,VALID,1009.54,VALID,0,VALID,86.6438,VALID,0,VALID,23.7701,VALID,225,VALID,1.1375,
2009-06-29, 00:07:04,VALID,1009.58,VALID,0,VALID,86.7582,VALID,0,VALID,23.7701,VALID,229,VALID,0.530469,
2009-06-29, 00:08:04,VALID,1009.66,VALID,0,VALID,87.0785,VALID,0.105969,VALID,23.8091,VALID,287,VALID,0.714063,
2009-06-29, 00:09:04,VALID,1009.76,VALID,0,VALID,87.2386,VALID,0.105969,VALID,23.7896,VALID,313,VALID,0.866797,
2009-06-29, 00:10:04,VALID,1009.81,VALID,0,VALID,87.1014,VALID,0.105969,VALID,23.7896,VALID,301,VALID,1.82773,
2009-06-29, 00:11:04,VALID,1009.86,VALID,0,VALID,86.8116,VALID,0,VALID,23.8091,VALID,291,VALID,1.51602,
2009-06-29, 00:12:04,VALID,1009.89,VALID,0,VALID,86.804,VALID,0,VALID,23.8481,VALID,295,VALID,1.54844,
2009-06-29, 00:13:04,VALID,1009.9,VALID,0,VALID,87.0556,VALID,0,VALID,23.8694,VALID,286,VALID,0.450391,
2009-06-29, 00:14:04,VALID,1009.91,VALID,0,VALID,87.0861,VALID,0.105969,VALID,23.8676,VALID,301,VALID,1.77969,
2009-06-29, 00:15:04,VALID,1009.91,VALID,0,VALID,87.1014,VALID,0.105969,VALID,23.8676,VALID,254,VALID,1.28906,
2009-06-29, 00:16:04,VALID,1009.91,VALID,0,VALID,87.1014,VALID,0.105969,VALID,23.8676,VALID,279,VALID,1.6582,
2009-06-29, 00:17:04,VALID,1009.89,VALID,0,VALID,87.2462,VALID,0.105969,VALID,23.8481,VALID,263,VALID,1.05469,
2009-06-29, 00:18:04,VALID,1009.84,VALID,0,VALID,87.2462,VALID,0.105969,VALID,23.8481,VALID,239,VALID,1.26953,
2009-06-29, 00:19:04,VALID,1009.82,VALID,0,VALID,87.3073,VALID,0,VALID,23.8499,VALID,266,VALID,1.20156,
2009-06-29, 00:20:04,VALID,1009.83,VALID,0,VALID,87.414,VALID,0.105969,VALID,23.8091,VALID,237,VALID,1.19492,
2009-06-29, 00:21:04,VALID,1009.83,VALID,0,VALID,87.414,VALID,0,VALID,23.7896,VALID,225,VALID,1.05859,
2009-06-29, 00:22:04,VALID,1009.88,VALID,0,VALID,87.414,VALID,0.105969,VALID,23.7896,VALID,247,VALID,1.24375,
2009-06-29, 00:23:04,VALID,1009.88,VALID,0,VALID,87.5131,VALID,0.105969,VALID,23.8109,VALID,248,VALID,0.535547,
2009-06-29, 00:24:04,VALID,1009.92,VALID,0,VALID,87.6199,VALID,0.105969,VALID,23.7896,VALID,279,VALID,0.781641,
2009-06-29, 00:25:04,VALID,1009.94,VALID,0,VALID,87.7343,VALID,0.105969,VALID,23.7701,VALID,271,VALID,0.629297,
2009-06-29, 00:26:04,VALID,1009.95,VALID,0,VALID,87.6809,VALID,0,VALID,23.7701,VALID,245,VALID,1.33086,
2009-06-29, 00:27:04,VALID,1009.95,VALID,0,VALID,87.7724,VALID,0,VALID,23.7896,VALID,239,VALID,0.575,
2009-06-29, 00:28:04,VALID,1010.01,VALID,0,VALID,87.8106,VALID,0,VALID,23.8109,VALID,259,VALID,1.14492,
2009-06-29, 00:29:04,VALID,1010.01,VALID,0,VALID,87.5665,VALID,0.105969,VALID,23.7878,VALID,216,VALID,1.45938,
2009-06-29, 00:30:04,VALID,1010.03,VALID,0,VALID,87.5284,VALID,0,VALID,23.8481,VALID,235,VALID,0.785547,
2009-06-29, 00:31:04,VALID,1010.06,VALID,0,VALID,87.3835,VALID,0,VALID,23.8481,VALID,264,VALID,1.30742,
2009-06-29, 00:32:04,VALID,1010.07,VALID,0,VALID,87.1929,VALID,0,VALID,23.8871,VALID,275,VALID,0.858594,
2009-06-29, 00:33:04,VALID,1010.08,VALID,0,VALID,87.1929,VALID,0,VALID,23.8871,VALID,266,VALID,0.617578,
2009-06-29, 00:34:04,VALID,1010.05,VALID,0,VALID,86.9717,VALID,0,VALID,23.9065,VALID,255,VALID,0.610547,
2009-06-29, 00:35:04,VALID,1010.1,VALID,0,VALID,86.8802,VALID,0,VALID,23.926,VALID,266,VALID,0.623047,
2009-06-29, 00:36:04,VALID,1010.11,VALID,0,VALID,86.7124,VALID,0.105969,VALID,23.926,VALID,226,VALID,0.9125,
2009-06-29, 00:37:04,VALID,1010.16,VALID,0,VALID,86.6972,VALID,0.105969,VALID,23.9455,VALID,207,VALID,1.14023,
2009-06-29, 00:38:04,VALID,1010.15,VALID,0,VALID,86.7811,VALID,0.105969,VALID,23.9455,VALID,228,VALID,0.623828,
2009-06-29, 00:39:04,VALID,1010.19,VALID,0,VALID,86.8268,VALID,0.105969,VALID,23.9455,VALID,223,VALID,0.640234,
2009-06-29, 00:40:04,VALID,1010.24,VALID,0,VALID,86.8421,VALID,0,VALID,23.926,VALID,232,VALID,0.883203,
2009-06-29, 00:41:04,VALID,1010.25,VALID,0,VALID,86.8345,VALID,0,VALID,23.926,VALID,228,VALID,0.330859,
2009-06-29, 00:42:04,VALID,1010.26,VALID,0,VALID,86.9641,VALID,0.105969,VALID,23.9455,VALID,300,VALID,0.760547,
2009-06-29, 00:43:04,VALID,1010.28,VALID,0,VALID,86.865,VALID,0.105969,VALID,23.926,VALID,307,VALID,0.430859,
2009-06-29, 00:44:04,VALID,1010.3,VALID,0,VALID,87.1776,VALID,0.105969,VALID,23.9455,VALID,307,VALID,0.297656,
2009-06-29, 00:45:04,VALID,1010.26,VALID,0,VALID,87.4216,VALID,0.105969,VALID,23.9065,VALID,339,VALID,0.269922,
2009-06-29, 00:46:04,VALID,1010.26,VALID,0,VALID,87.5284,VALID,0,VALID,23.9084,VALID,347,VALID,0.304297,
2009-06-29, 00:47:04,VALID,1010.24,VALID,0,VALID,87.6199,VALID,0.105969,VALID,23.8676,VALID,348,VALID,0.239063,
2009-06-29, 00:48:04,VALID,1010.26,VALID,0,VALID,87.6275,VALID,0,VALID,23.8481,VALID,38,VALID,0.555859,
2009-06-29, 00:49:04,VALID,1010.25,VALID,0,VALID,87.8258,VALID,0.105969,VALID,23.8286,VALID,349,VALID,0.757813,
2009-06-29, 00:50:04,VALID,1010.26,VALID,0,VALID,87.9707,VALID,0.105969,VALID,23.7896,VALID,348,VALID,0.703516,
2009-06-29, 00:51:04,VALID,1010.26,VALID,0,VALID,88.1537,VALID,0,VALID,23.7701,VALID,347,VALID,0.371094,
2009-06-29, 00:52:04,VALID,1010.24,VALID,0,VALID,88.3825,VALID,0,VALID,23.7507,VALID,347,VALID,0.00820312,
2009-06-29, 00:53:04,VALID,1010.19,VALID,0,VALID,88.4511,VALID,0,VALID,23.733,VALID,347,VALID,0,
2009-06-29, 00:54:04,VALID,1010.19,VALID,0,VALID,88.474,VALID,0,VALID,23.7117,VALID,347,VALID,0.440234,
2009-06-29, 00:55:04,VALID,1010.21,VALID,0,VALID,88.5655,VALID,0,VALID,23.7117,VALID,287,VALID,0.517187,
2009-06-29, 00:56:04,VALID,1010.24,VALID,0.5,VALID,88.6494,VALID,0,VALID,23.7117,VALID,204,VALID,0.784375,
2009-06-29, 00:57:04,VALID,1010.23,VALID,0,VALID,88.8172,VALID,0,VALID,23.7117,VALID,204,VALID,0.843359,
2009-06-29, 00:58:04,VALID,1010.23,VALID,0,VALID,88.8095,VALID,0,VALID,23.6922,VALID,203,VALID,0.799609,
2009-06-29, 00:59:04,VALID,1010.23,VALID,0,VALID,88.9163,VALID,0.105969,VALID,23.6727,VALID,203,VALID,0.494141,
2009-06-29, 01:00:04,VALID,1010.22,VALID,0.5,VALID,89.0917,VALID,0,VALID,23.655,VALID,203,VALID,0.0839844,
2009-06-29, 01:01:04,VALID,1010.22,VALID,0,VALID,89.3357,VALID,0,VALID,23.6143,VALID,218,VALID,0.116016,
2009-06-29, 01:02:04,VALID,1010.25,VALID,0,VALID,89.4653,VALID,0.105969,VALID,23.5753,VALID,273,VALID,0.216016,
2009-06-29, 01:03:04,VALID,1010.26,VALID,0.5,VALID,89.6255,VALID,0,VALID,23.5558,VALID,274,VALID,0.63125,
2009-06-29, 01:04:04,VALID,1010.23,VALID,1,VALID,89.7399,VALID,0,VALID,23.5381,VALID,252,VALID,0.558594,
2009-06-29, 01:05:04,VALID,1010.22,VALID,0,VALID,89.8771,VALID,0,VALID,23.4779,VALID,234,VALID,1.28867,
2009-06-29, 01:06:04,VALID,1010.22,VALID,1,VALID,89.9839,VALID,0,VALID,23.4,VALID,228,VALID,1.05117,
2009-06-29, 01:07:04,VALID,1010.18,VALID,1,VALID,90.1364,VALID,0.105969,VALID,23.361,VALID,262,VALID,0.408203,
2009-06-29, 01:08:04,VALID,1010.09,VALID,1,VALID,90.2737,VALID,0.105969,VALID,23.3415,VALID,305,VALID,1.04961,
2009-06-29, 01:09:04,VALID,1009.98,VALID,0.5,VALID,90.3499,VALID,0,VALID,23.2636,VALID,293,VALID,0.996484,
2009-06-29, 01:10:04,VALID,1009.93,VALID,0.5,VALID,90.4186,VALID,0.105969,VALID,23.2051,VALID,293,VALID,0.550781,
2009-06-29, 01:11:04,VALID,1009.88,VALID,0.5,VALID,90.5329,VALID,0,VALID,23.1662,VALID,296,VALID,0.258984,
2009-06-29, 01:12:04,VALID,1009.83,VALID,0.5,VALID,90.6321,VALID,0.105969,VALID,23.1679,VALID,357,VALID,0.194922,
2009-06-29, 01:13:04,VALID,1009.84,VALID,0.5,VALID,90.716,VALID,0,VALID,23.0883,VALID,21,VALID,0.632422,
2009-06-29, 01:14:04,VALID,1009.82,VALID,0.5,VALID,90.7998,VALID,0.105969,VALID,23.0883,VALID,45,VALID,0.959766,
2009-06-29, 01:15:04,VALID,1009.79,VALID,0,VALID,90.8685,VALID,0,VALID,23.0493,VALID,79,VALID,0.814453,
2009-06-29, 01:16:04,VALID,1009.8,VALID,0.5,VALID,90.9142,VALID,0,VALID,23.0103,VALID,90,VALID,0.657812,
2009-06-29, 01:17:04,VALID,1009.83,VALID,0,VALID,90.96,VALID,0,VALID,22.9909,VALID,114,VALID,0.736328,
2009-06-29, 01:18:04,VALID,1009.85,VALID,0,VALID,91.0286,VALID,0,VALID,22.9909,VALID,126,VALID,0.880859,
2009-06-29, 01:19:04,VALID,1009.9,VALID,0,VALID,91.0515,VALID,0,VALID,22.9714,VALID,137,VALID,0.940234,
2009-06-29, 01:20:04,VALID,1009.94,VALID,0,VALID,91.1049,VALID,0.105969,VALID,23.0121,VALID,140,VALID,0.837891,
2009-06-29, 01:21:04,VALID,1009.94,VALID,0.5,VALID,91.1278,VALID,0,VALID,22.9909,VALID,147,VALID,0.752344,
2009-06-29, 01:22:04,VALID,1009.94,VALID,0,VALID,91.1659,VALID,0.105969,VALID,22.9909,VALID,152,VALID,0.507422,
2009-06-29, 01:23:04,VALID,1009.98,VALID,0,VALID,91.1811,VALID,0,VALID,22.9696,VALID,152,VALID,0.578125,
2009-06-29, 01:24:04,VALID,1009.99,VALID,0,VALID,91.2116,VALID,0,VALID,22.9909,VALID,155,VALID,0.475391,
2009-06-29, 01:25:04,VALID,1010,VALID,0.5,VALID,91.2345,VALID,0,VALID,22.9909,VALID,155,VALID,0.55,
2009-06-29, 01:26:04,VALID,1009.99,VALID,0,VALID,91.2726,VALID,0.105969,VALID,22.9909,VALID,155,VALID,0.416406,
2009-06-29, 01:27:04,VALID,1009.99,VALID,0,VALID,91.2726,VALID,0,VALID,23.0103,VALID,155,VALID,0.442187,
2009-06-29, 01:28:04,VALID,1010.01,VALID,0,VALID,91.2726,VALID,0.105969,VALID,23.0103,VALID,155,VALID,0,
2009-06-29, 01:29:04,VALID,1009.99,VALID,0.5,VALID,91.2955,VALID,0.105969,VALID,23.0493,VALID,155,VALID,0,
2009-06-29, 01:30:04,VALID,1009.99,VALID,0,VALID,91.3184,VALID,0.105969,VALID,23.0511,VALID,155,VALID,0,
2009-06-29, 01:31:04,VALID,1010.01,VALID,0,VALID,91.3489,VALID,0,VALID,23.0511,VALID,155,VALID,0,
2009-06-29, 01:32:04,VALID,1009.96,VALID,0,VALID,91.3489,VALID,0,VALID,23.0316,VALID,155,VALID,0,
2009-06-29, 01:33:04,VALID,1009.97,VALID,0,VALID,91.3642,VALID,0,VALID,23.0316,VALID,155,VALID,0,
2009-06-29, 01:34:04,VALID,1009.95,VALID,0.5,VALID,91.3794,VALID,0,VALID,23.0316,VALID,155,VALID,0,
2009-06-29, 01:35:04,VALID,1009.93,VALID,0,VALID,91.387,VALID,0,VALID,23.0316,VALID,155,VALID,0,
2009-06-29, 01:36:04,VALID,1009.89,VALID,0,VALID,91.387,VALID,0,VALID,23.0511,VALID,155,VALID,0,
2009-06-29, 01:37:04,VALID,1009.88,VALID,0,VALID,91.387,VALID,0,VALID,23.0316,VALID,155,VALID,0.369531,
2009-06-29, 01:38:04,VALID,1009.82,VALID,0.5,VALID,91.4023,VALID,0,VALID,23.0316,VALID,156,VALID,0.619922,
2009-06-29, 01:39:04,VALID,1009.81,VALID,0,VALID,91.4175,VALID,0,VALID,23.0528,VALID,159,VALID,0.530859,
2009-06-29, 01:40:04,VALID,1009.79,VALID,0,VALID,91.4404,VALID,0,VALID,23.0316,VALID,159,VALID,0.362891,
2009-06-29, 01:41:04,VALID,1009.78,VALID,0,VALID,91.4252,VALID,0,VALID,23.0705,VALID,159,VALID,0.00585938,
2009-06-29, 01:42:04,VALID,1009.76,VALID,0,VALID,91.448,VALID,0,VALID,23.0705,VALID,159,VALID,0,
2009-06-29, 01:43:04,VALID,1009.74,VALID,0.5,VALID,91.4328,VALID,0,VALID,23.0705,VALID,159,VALID,0,
2009-06-29, 01:44:04,VALID,1009.76,VALID,0,VALID,91.4785,VALID,0,VALID,23.0918,VALID,159,VALID,0,
2009-06-29, 01:45:04,VALID,1009.75,VALID,0,VALID,91.4709,VALID,0.105969,VALID,23.0493,VALID,156,VALID,0.392969,
2009-06-29, 01:46:04,VALID,1009.73,VALID,0,VALID,91.4785,VALID,0.105969,VALID,23.0281,VALID,118,VALID,0.466797,
2009-06-29, 01:47:04,VALID,1009.75,VALID,0,VALID,91.4557,VALID,0.105969,VALID,23.0493,VALID,106,VALID,0.631641,
2009-06-29, 01:48:04,VALID,1009.77,VALID,0.5,VALID,91.4785,VALID,0,VALID,23.0493,VALID,106,VALID,0.466797,
2009-06-29, 01:49:04,VALID,1009.78,VALID,0,VALID,91.4938,VALID,0.105969,VALID,23.0493,VALID,106,VALID,0.295312,
2009-06-29, 01:50:04,VALID,1009.78,VALID,0,VALID,91.4862,VALID,0,VALID,23.0688,VALID,106,VALID,0.185156,
2009-06-29, 01:51:04,VALID,1009.8,VALID,0,VALID,91.4938,VALID,0,VALID,23.0883,VALID,106,VALID,0,
2009-06-29, 01:52:04,VALID,1009.8,VALID,0.5,VALID,91.4785,VALID,0.105969,VALID,23.0883,VALID,106,VALID,0,
2009-06-29, 01:53:04,VALID,1009.85,VALID,0,VALID,91.4938,VALID,0.105969,VALID,23.0883,VALID,96,VALID,0,
2009-06-29, 01:54:04,VALID,1009.85,VALID,0,VALID,91.509,VALID,0.105969,VALID,23.0883,VALID,73,VALID,0,
2009-06-29, 01:55:04,VALID,1009.88,VALID,0,VALID,91.4938,VALID,0.105969,VALID,23.0688,VALID,73,VALID,0,
2009-06-29, 01:56:04,VALID,1009.93,VALID,0.5,VALID,91.5014,VALID,0,VALID,23.0883,VALID,73,VALID,0,
2009-06-29, 01:57:04,VALID,1009.94,VALID,0,VALID,91.5167,VALID,0,VALID,23.0883,VALID,73,VALID,0,
2009-06-29, 01:58:04,VALID,1009.98,VALID,0,VALID,91.5319,VALID,0.105969,VALID,23.0883,VALID,73,VALID,0,
2009-06-29, 01:59:04,VALID,1010,VALID,0,VALID,91.5472,VALID,0,VALID,23.0688,VALID,73,VALID,0,
2009-06-29, 02:00:04,VALID,1010.01,VALID,0,VALID,91.5167,VALID,0,VALID,23.09,VALID,73,VALID,0,
2009-06-29, 02:01:04,VALID,1010.03,VALID,0,VALID,91.5472,VALID,0,VALID,23.09,VALID,73,VALID,0,
2009-06-29, 02:02:04,VALID,1010.08,VALID,0.5,VALID,91.5395,VALID,0,VALID,23.1095,VALID,73,VALID,0,
2009-06-29, 02:03:04,VALID,1010.07,VALID,0,VALID,91.5395,VALID,0,VALID,23.09,VALID,73,VALID,0,
2009-06-29, 02:04:04,VALID,1010.12,VALID,0,VALID,91.5472,VALID,0,VALID,23.0705,VALID,73,VALID,0,
2009-06-29, 02:05:04,VALID,1010.1,VALID,0,VALID,91.5319,VALID,0,VALID,23.0705,VALID,73,VALID,0,
2009-06-29, 02:06:04,VALID,1010.13,VALID,0,VALID,91.5472,VALID,0,VALID,23.09,VALID,73,VALID,0,
2009-06-29, 02:07:04,VALID,1010.14,VALID,0,VALID,91.5472,VALID,0,VALID,23.0705,VALID,73,VALID,0,
2009-06-29, 02:08:04,VALID,1010.16,VALID,0,VALID,91.5624,VALID,0,VALID,23.09,VALID,73,VALID,0,
2009-06-29, 02:09:04,VALID,1010.2,VALID,0.5,VALID,91.5548,VALID,0,VALID,23.09,VALID,73,VALID,0,
2009-06-29, 02:10:04,VALID,1010.22,VALID,0,VALID,91.57,VALID,0,VALID,23.09,VALID,73,VALID,0,
2009-06-29, 02:11:04,VALID,1010.25,VALID,0,VALID,91.5548,VALID,0,VALID,23.1095,VALID,73,VALID,0,
2009-06-29, 02:12:04,VALID,1010.27,VALID,0.5,VALID,91.5472,VALID,0,VALID,23.1095,VALID,73,VALID,0,
2009-06-29, 02:13:04,VALID,1010.3,VALID,0,VALID,91.5624,VALID,0,VALID,23.1095,VALID,73,VALID,0,
2009-06-29, 02:14:04,VALID,1010.33,VALID,0,VALID,91.5624,VALID,0,VALID,23.129,VALID,73,VALID,0,
2009-06-29, 02:15:04,VALID,1010.35,VALID,0.5,VALID,91.57,VALID,0,VALID,23.129,VALID,73,VALID,0,
2009-06-29, 02:16:04,VALID,1010.34,VALID,0,VALID,91.5624,VALID,0,VALID,23.129,VALID,73,VALID,0,
2009-06-29, 02:17:04,VALID,1010.35,VALID,0,VALID,91.5548,VALID,0,VALID,23.1485,VALID,73,VALID,0,
2009-06-29, 02:18:04,VALID,1010.36,VALID,0.5,VALID,91.5548,VALID,0,VALID,23.129,VALID,73,VALID,0,
2009-06-29, 02:19:04,VALID,1010.35,VALID,0,VALID,91.5624,VALID,0,VALID,23.129,VALID,73,VALID,0,
2009-06-29, 02:20:04,VALID,1010.36,VALID,0,VALID,91.5853,VALID,0,VALID,23.1095,VALID,73,VALID,0,
2009-06-29, 02:21:04,VALID,1010.35,VALID,0.5,VALID,91.6005,VALID,0,VALID,23.1307,VALID,73,VALID,0,
2009-06-29, 02:22:04,VALID,1010.36,VALID,0,VALID,91.5853,VALID,0,VALID,23.1095,VALID,116,VALID,0,
2009-06-29, 02:23:04,VALID,1010.33,VALID,0,VALID,91.5929,VALID,0,VALID,23.1095,VALID,116,VALID,0,
2009-06-29, 02:24:04,VALID,1010.34,VALID,0.5,VALID,91.5777,VALID,0,VALID,23.1095,VALID,116,VALID,0,
2009-06-29, 02:25:04,VALID,1010.36,VALID,0,VALID,91.6005,VALID,0,VALID,23.09,VALID,116,VALID,0,
2009-06-29, 02:26:04,VALID,1010.34,VALID,0,VALID,91.5929,VALID,0,VALID,23.1112,VALID,124,VALID,0,
2009-06-29, 02:27:04,VALID,1010.35,VALID,0.5,VALID,91.5853,VALID,0,VALID,23.09,VALID,125,VALID,0,
2009-06-29, 02:28:04,VALID,1010.37,VALID,0,VALID,91.6005,VALID,0,VALID,23.09,VALID,127,VALID,0,
2009-06-29, 02:29:04,VALID,1010.38,VALID,0.5,VALID,91.5929,VALID,0,VALID,23.1095,VALID,137,VALID,0,
2009-06-29, 02:30:04,VALID,1010.39,VALID,0,VALID,91.5853,VALID,0.105969,VALID,23.1077,VALID,133,VALID,0,
2009-06-29, 02:31:04,VALID,1010.41,VALID,0,VALID,91.6158,VALID,0.105969,VALID,23.1272,VALID,119,VALID,0.731641,
2009-06-29, 02:32:04,VALID,1010.41,VALID,0,VALID,91.5929,VALID,0.105969,VALID,23.1272,VALID,108,VALID,0.542578,
2009-06-29, 02:33:04,VALID,1010.43,VALID,0.5,VALID,91.6005,VALID,0.105969,VALID,23.1272,VALID,109,VALID,0.499609,
2009-06-29, 02:34:04,VALID,1010.43,VALID,0,VALID,91.5853,VALID,0.105969,VALID,23.1467,VALID,110,VALID,0.431641,
2009-06-29, 02:35:04,VALID,1010.41,VALID,0,VALID,91.5929,VALID,0.105969,VALID,23.1467,VALID,110,VALID,0.469922,
2009-06-29, 02:36:04,VALID,1010.38,VALID,0.5,VALID,91.5929,VALID,0.105969,VALID,23.1485,VALID,93,VALID,0.758984,
2009-06-29, 02:37:04,VALID,1010.41,VALID,0,VALID,91.6005,VALID,0.105969,VALID,23.1272,VALID,93,VALID,0.53125,
2009-06-29, 02:38:04,VALID,1010.4,VALID,0,VALID,91.6082,VALID,0,VALID,23.1679,VALID,89,VALID,0.358984,
2009-06-29, 02:39:04,VALID,1010.39,VALID,0,VALID,91.5777,VALID,0.105969,VALID,23.1272,VALID,50,VALID,0.434375,
2009-06-29, 02:40:04,VALID,1010.4,VALID,0.5,VALID,91.6082,VALID,0,VALID,23.1467,VALID,18,VALID,0.481641,
2009-06-29, 02:41:04,VALID,1010.41,VALID,0,VALID,91.6082,VALID,0.105969,VALID,23.1272,VALID,10,VALID,0.427344,
2009-06-29, 02:42:04,VALID,1010.42,VALID,0,VALID,91.6005,VALID,0.105969,VALID,23.1077,VALID,7,VALID,0.618359,
2009-06-29, 02:43:04,VALID,1010.4,VALID,0.5,VALID,91.6082,VALID,0,VALID,23.1467,VALID,7,VALID,0.383984,
2009-06-29, 02:44:04,VALID,1010.43,VALID,0,VALID,91.6311,VALID,0.105969,VALID,23.1272,VALID,7,VALID,0.433984,
2009-06-29, 02:45:04,VALID,1010.42,VALID,0,VALID,91.6082,VALID,0,VALID,23.129,VALID,72,VALID,0.708984,
2009-06-29, 02:46:04,VALID,1010.4,VALID,0.5,VALID,91.6158,VALID,0,VALID,23.129,VALID,68,VALID,0.791797,
2009-06-29, 02:47:04,VALID,1010.42,VALID,0,VALID,91.6158,VALID,0,VALID,23.1095,VALID,63,VALID,0.902344,
2009-06-29, 02:48:04,VALID,1010.38,VALID,0,VALID,91.6158,VALID,0,VALID,23.1095,VALID,83,VALID,0.805859,
2009-06-29, 02:49:04,VALID,1010.36,VALID,0.5,VALID,91.6234,VALID,0,VALID,23.09,VALID,66,VALID,0.996875,
2009-06-29, 02:50:04,VALID,1010.37,VALID,0,VALID,91.6387,VALID,0,VALID,23.09,VALID,61,VALID,0.593359,
2009-06-29, 02:51:04,VALID,1010.35,VALID,0,VALID,91.6387,VALID,0,VALID,23.09,VALID,61,VALID,0.597266,
2009-06-29, 02:52:04,VALID,1010.31,VALID,0,VALID,91.6387,VALID,0,VALID,23.09,VALID,61,VALID,0.389453,
2009-06-29, 02:53:04,VALID,1010.28,VALID,0,VALID,91.6234,VALID,0,VALID,23.0511,VALID,56,VALID,0.720312,
2009-06-29, 02:54:04,VALID,1010.28,VALID,0.5,VALID,91.6692,VALID,0,VALID,23.0511,VALID,87,VALID,0.929688,
2009-06-29, 02:55:04,VALID,1010.23,VALID,0,VALID,91.6463,VALID,0,VALID,23.0316,VALID,64,VALID,0.645312,
2009-06-29, 02:56:04,VALID,1010.22,VALID,0,VALID,91.6463,VALID,0,VALID,23.0316,VALID,67,VALID,0.548828,
2009-06-29, 02:57:04,VALID,1010.21,VALID,0,VALID,91.6463,VALID,0,VALID,23.0316,VALID,61,VALID,0.955469,
2009-06-29, 02:58:04,VALID,1010.2,VALID,0.5,VALID,91.6387,VALID,0,VALID,23.0121,VALID,66,VALID,0.408203,
2009-06-29, 02:59:04,VALID,1010.21,VALID,0,VALID,91.6463,VALID,0,VALID,23.0121,VALID,66,VALID,0.282422,
2009-06-29, 03:00:04,VALID,1010.24,VALID,0,VALID,91.6616,VALID,0,VALID,23.0121,VALID,66,VALID,0.459766,
2009-06-29, 03:01:04,VALID,1010.22,VALID,0,VALID,91.6463,VALID,0,VALID,23.0121,VALID,66,VALID,0.460547,
2009-06-29, 03:02:04,VALID,1010.22,VALID,0.5,VALID,91.6539,VALID,0,VALID,22.9926,VALID,71,VALID,0.571094,
2009-06-29, 03:03:04,VALID,1010.21,VALID,0,VALID,91.6616,VALID,0,VALID,23.0121,VALID,73,VALID,0.498437,
2009-06-29, 03:04:04,VALID,1010.22,VALID,0,VALID,91.6463,VALID,0,VALID,23.0121,VALID,74,VALID,0.373828,
2009-06-29, 03:05:04,VALID,1010.22,VALID,0,VALID,91.6616,VALID,0,VALID,23.0121,VALID,74,VALID,0.631641,
2009-06-29, 03:06:04,VALID,1010.22,VALID,0,VALID,91.6539,VALID,0,VALID,23.0121,VALID,57,VALID,0.462891,
2009-06-29, 03:07:04,VALID,1010.22,VALID,0.5,VALID,91.6539,VALID,0,VALID,22.9926,VALID,88,VALID,0.723828,
2009-06-29, 03:08:04,VALID,1010.2,VALID,0,VALID,91.6616,VALID,0,VALID,22.9926,VALID,90,VALID,0.590625,
2009-06-29, 03:09:04,VALID,1010.2,VALID,0,VALID,91.6692,VALID,0,VALID,22.9731,VALID,100,VALID,0.746875,
2009-06-29, 03:10:04,VALID,1010.17,VALID,0.5,VALID,91.6616,VALID,0,VALID,22.9731,VALID,90,VALID,0.767969,
2009-06-29, 03:11:04,VALID,1010.14,VALID,0,VALID,91.6616,VALID,0,VALID,22.9731,VALID,87,VALID,0.715625,
2009-06-29, 03:12:04,VALID,1010.13,VALID,0,VALID,91.6616,VALID,0,VALID,22.9926,VALID,98,VALID,0.448438,
2009-06-29, 03:13:04,VALID,1010.13,VALID,0,VALID,91.6616,VALID,0,VALID,22.9536,VALID,60,VALID,0.290234,
2009-06-29, 03:14:04,VALID,1010.14,VALID,0.5,VALID,91.6616,VALID,0,VALID,22.9731,VALID,64,VALID,0.508203,
2009-06-29, 03:15:04,VALID,1010.1,VALID,0,VALID,91.6616,VALID,0,VALID,22.9731,VALID,67,VALID,0.381641,
2009-06-29, 03:16:04,VALID,1010.09,VALID,0,VALID,91.6463,VALID,0,VALID,22.9731,VALID,86,VALID,0.714844,
2009-06-29, 03:17:04,VALID,1010.08,VALID,0,VALID,91.6692,VALID,0,VALID,22.9536,VALID,95,VALID,0.835547,
2009-06-29, 03:18:04,VALID,1010.07,VALID,0.5,VALID,91.6692,VALID,0,VALID,22.9342,VALID,83,VALID,0.814453,
2009-06-29, 03:19:04,VALID,1010.06,VALID,0,VALID,91.6768,VALID,0,VALID,22.9324,VALID,82,VALID,1.05273,
2009-06-29, 03:20:04,VALID,1010.01,VALID,0,VALID,91.6616,VALID,0,VALID,22.9342,VALID,101,VALID,1.10977,
2009-06-29, 03:21:04,VALID,1010.01,VALID,0,VALID,91.6997,VALID,0,VALID,22.9342,VALID,86,VALID,0.809766,
2009-06-29, 03:22:04,VALID,1010,VALID,0,VALID,91.6692,VALID,0,VALID,22.9342,VALID,62,VALID,0.493359,
2009-06-29, 03:23:04,VALID,1009.99,VALID,0.5,VALID,91.6844,VALID,0,VALID,22.9342,VALID,59,VALID,1.03242,
2009-06-29, 03:24:04,VALID,1010,VALID,0,VALID,91.6844,VALID,0,VALID,22.9342,VALID,69,VALID,0.593359,
2009-06-29, 03:25:04,VALID,1009.99,VALID,0,VALID,91.6768,VALID,0,VALID,22.9342,VALID,70,VALID,0.584766,
2009-06-29, 03:26:04,VALID,1009.98,VALID,0,VALID,91.6768,VALID,0,VALID,22.9147,VALID,53,VALID,0.517969,
2009-06-29, 03:27:04,VALID,1009.97,VALID,0.5,VALID,91.6768,VALID,0,VALID,22.9147,VALID,75,VALID,0.774609,
2009-06-29, 03:28:04,VALID,1009.98,VALID,0,VALID,91.6997,VALID,0,VALID,22.874,VALID,74,VALID,0.4375,
2009-06-29, 03:29:04,VALID,1009.96,VALID,0,VALID,91.6844,VALID,0,VALID,22.9147,VALID,74,VALID,0.428125,
2009-06-29, 03:30:04,VALID,1009.96,VALID,0,VALID,91.7073,VALID,0,VALID,22.9147,VALID,85,VALID,0.671094,
2009-06-29, 03:31:04,VALID,1009.92,VALID,0.5,VALID,91.6844,VALID,0,VALID,22.8935,VALID,83,VALID,0.669141,
2009-06-29, 03:32:04,VALID,1009.92,VALID,0,VALID,91.6844,VALID,0,VALID,22.8935,VALID,84,VALID,0.857422,
2009-06-29, 03:33:04,VALID,1009.91,VALID,0,VALID,91.6768,VALID,0,VALID,22.9147,VALID,91,VALID,0.577344,
2009-06-29, 03:34:04,VALID,1009.88,VALID,0,VALID,91.7073,VALID,0,VALID,22.9147,VALID,84,VALID,0.680859,
2009-06-29, 03:35:04,VALID,1009.88,VALID,0,VALID,91.6844,VALID,0,VALID,22.8952,VALID,73,VALID,0.441406,
2009-06-29, 03:36:04,VALID,1009.86,VALID,0.5,VALID,91.6997,VALID,0,VALID,22.8952,VALID,56,VALID,0.523828,
2009-06-29, 03:37:04,VALID,1009.85,VALID,0,VALID,91.6844,VALID,0,VALID,22.8757,VALID,90,VALID,0.851953,
2009-06-29, 03:38:04,VALID,1009.88,VALID,0,VALID,91.7073,VALID,0,VALID,22.8545,VALID,72,VALID,0.836328,
2009-06-29, 03:39:04,VALID,1009.89,VALID,0,VALID,91.6997,VALID,0,VALID,22.8757,VALID,72,VALID,0.792188,
2009-06-29, 03:40:04,VALID,1009.85,VALID,0,VALID,91.7073,VALID,0,VALID,22.8757,VALID,70,VALID,0.702344,
2009-06-29, 03:41:04,VALID,1009.86,VALID,0,VALID,91.7149,VALID,0,VALID,22.8757,VALID,62,VALID,1.07305,
2009-06-29, 03:42:04,VALID,1009.84,VALID,0.5,VALID,91.7149,VALID,0,VALID,22.8562,VALID,88,VALID,1.19609,
2009-06-29, 03:43:04,VALID,1009.84,VALID,0,VALID,91.7073,VALID,0,VALID,22.8562,VALID,90,VALID,0.953516,
2009-06-29, 03:44:04,VALID,1009.84,VALID,0,VALID,91.7073,VALID,0,VALID,22.8562,VALID,82,VALID,1.20313,